Weather History for KBMQ - October, 2011

Change the Weather History Date:

Wednesday, October 19, 2011

  Actual Average Record
Temperature  
Mean Temperature 62 °F -  
Max Temperature 75 °F 74 °F 91 °F (2004)
Min Temperature 51 °F 55 °F 44 °F (2013)
Degree Days  
Heating Degree Days 3    
Growing Degree Days 12 (Base 50)    
Moisture  
Dew Point 27 °F    
Average Humidity 29    
Maximum Humidity 44    
Minimum Humidity 16    
Precipitation  
Precipitation 0.00 in - - ()
Sea Level Pressure  
Sea Level Pressure 30.12 in    
Wind  
Wind Speed 10 mph (NNW)    
Max Wind Speed 17 mph    
Max Gust Speed 29 mph    
Visibility 10 miles    
Events      
Averages and records for this station are not official NWS values.
T = Trace of Precipitation, MM = Missing Value Source: NWS Daily Summary

Daily Weather History Graph

Daily Weather History Graph

Search for Another Location

Airport or City:

Trip Planner

Search our weather history database for the weather conditions in past years. The results will help you decide how hot, cold, wet, or windy it might be!

Date:

Astronomy

Oct. 19, 2011 Rise Set
Actual Time 7:37 AM CDT 6:57 PM CDT
Civil Twilight 7:13 AM CDT 7:21 PM CDT
Nautical Twilight 6:45 AM CDT 7:49 PM CDT
Astronomical Twilight 6:17 AM CDT 8:17 PM CDT
Moon No Moon Rise 1:59 PM CDT (10/19)
Length of Visible Light 12h 08m
Length of Day
11h 19m
Waning Gibbous, 54% of the Moon is Illuminated
Oct 19
Waning Gibbous
Oct 19
Last Quarter
Oct 26
New
Nov 2
First Quarter
Nov 10
Full

Hourly Weather History & Observations

Time (CDT) Temp. Dew Point Humidity Pressure Visibility Wind Dir Wind Speed Gust Speed Precip Events Conditions
12:53 AM 57.9 °F 28.0 °F 32% 30.13 in 10.0 mi NNW 10.4 mph - N/A   Clear
1:53 AM 57.0 °F 28.0 °F 33% 30.12 in 10.0 mi NNW 10.4 mph - N/A   Clear
2:53 AM 55.9 °F 28.9 °F 36% 30.13 in 10.0 mi NW 9.2 mph - N/A   Clear
3:53 AM 55.0 °F 28.9 °F 37% 30.13 in 10.0 mi NW 10.4 mph - N/A   Clear
4:53 AM 54.0 °F 28.9 °F 38% 30.14 in 10.0 mi NW 11.5 mph - N/A   Clear
5:53 AM 52.0 °F 30.0 °F 43% 30.15 in 10.0 mi NW 9.2 mph - N/A   Clear
6:53 AM 52.0 °F 28.9 °F 41% 30.16 in 10.0 mi NNW 10.4 mph - N/A   Clear
7:53 AM 51.1 °F 30.0 °F 44% 30.17 in 10.0 mi NNW 8.1 mph - N/A   Clear
8:53 AM 53.1 °F 30.9 °F 43% 30.19 in 10.0 mi WNW 6.9 mph - N/A   Clear
9:53 AM 57.9 °F 28.9 °F 33% 30.20 in 10.0 mi NW 16.1 mph - N/A   Clear
10:53 AM 63.0 °F 25.0 °F 24% 30.19 in 10.0 mi North 12.7 mph 21.9 mph N/A   Clear
11:53 AM 66.0 °F 24.1 °F 20% 30.18 in 10.0 mi NW 11.5 mph - N/A   Clear
12:53 PM 68.0 °F 24.1 °F 19% 30.15 in 10.0 mi NW 11.5 mph 19.6 mph N/A   Clear
1:53 PM 71.1 °F 23.0 °F 16% 30.12 in 10.0 mi NNW 10.4 mph 28.8 mph N/A   Clear
2:53 PM 72.0 °F 24.1 °F 17% 30.09 in 10.0 mi NW 17.3 mph 27.6 mph N/A   Clear
3:53 PM 73.9 °F 26.1 °F 17% 30.06 in 10.0 mi NW 10.4 mph 20.7 mph N/A   Clear
4:53 PM 73.9 °F 26.1 °F 17% 30.04 in 10.0 mi NNW 12.7 mph 23.0 mph N/A   Clear
5:53 PM 73.0 °F 25.0 °F 17% 30.04 in 10.0 mi NW 15.0 mph 20.7 mph N/A   Clear
6:53 PM 70.0 °F 26.1 °F 19% 30.06 in 10.0 mi NNW 8.1 mph - N/A   Clear
7:53 PM 66.0 °F 27.0 °F 23% 30.07 in 10.0 mi NNW 5.8 mph - N/A   Clear
8:53 PM 60.1 °F 28.9 °F 31% 30.09 in 10.0 mi North 4.6 mph - N/A   Clear
9:53 PM 60.1 °F 28.9 °F 31% 30.10 in 10.0 mi North 3.5 mph - N/A   Clear
10:53 PM 57.9 °F 30.0 °F 35% 30.11 in 10.0 mi NNE 5.8 mph - N/A   Clear
11:53 PM 57.0 °F 30.0 °F 36% 30.10 in 10.0 mi ENE 4.6 mph - N/A   Clear